75000 - Paris

Modèle arome - 05/05/2026 06:00
Altitude : 28 - 131m

05/05/2026 à 11:58 (UTC)

Date (UTC!) Model Picto Température Min Max T850 T950 Humidité Précipitation Neige (proba) Pression Nuages Bas Nuages Moyen Nuages Haut Nuages Total Nuages Corrigés CAPE Iso Vent (dir) Vent (vitesse) Rafales (vitesse)
05/05 - 07:00 arome 13,52 13,38 13,54 5,02 9,82 91,34 0,00 (1h) 0,00 10,09 100,00 48,70 100,00 100,01 100,00 37,59 0,00 45,50 11,76 25,20
05/05 - 08:00 arome 13,81 13,52 13,87 5,50 10,00 88,83 0,00 (1h) 0,00 10,09 100,00 98,10 100,00 100,01 100,00 43,82 0,00 32,67 11,20 23,93
05/05 - 09:00 arome 14,15 13,52 14,15 5,82 10,09 86,67 0,00 (1h) 0,00 10,09 100,00 100,00 100,00 100,01 100,00 57,21 0,00 26,07 11,22 24,60
05/05 - 10:00 arome 14,92 14,19 14,93 4,95 10,23 82,24 0,00 (1h) 0,00 10,08 100,00 100,00 100,00 100,01 100,00 111,54 0,00 41,76 13,95 28,23
05/05 - 11:00 arome 15,35 14,69 15,35 5,09 10,55 80,21 0,00 (1h) 0,00 10,08 90,80 100,00 100,00 100,01 100,00 129,68 0,00 20,37 14,48 29,29
05/05 - 12:00 arome 15,03 15,03 15,72 5,35 10,35 81,59 0,00 (1h) 0,00 10,07 99,60 100,00 100,00 100,01 100,00 98,13 0,00 11,57 17,05 35,40
05/05 - 13:00 arome 14,20 14,20 15,07 5,12 9,99 85,47 0,00 (1h) 0,00 10,07 100,00 100,00 100,00 100,01 100,00 64,08 0,00 15,56 17,04 36,31
05/05 - 14:00 arome 14,17 13,97 14,21 5,32 9,84 83,58 0,04 (1h) 0,00 10,07 100,00 100,00 100,00 100,01 100,00 34,47 0,00 12,37 15,29 34,88
05/05 - 15:00 arome 14,28 14,13 14,29 4,96 9,95 84,57 1,25 (1h) 0,00 10,07 100,00 100,00 100,00 100,01 100,00 47,95 0,00 15,72 16,61 33,44
05/05 - 16:00 arome 14,49 14,28 14,49 5,39 10,06 83,38 0,27 (1h) 0,00 10,06 100,00 100,00 100,00 100,01 100,00 54,46 0,00 12,30 17,24 34,60
05/05 - 17:00 arome 14,40 14,39 14,49 5,26 10,02 81,87 0,02 (1h) 0,00 10,06 99,25 100,00 100,00 100,01 100,00 42,58 0,00 14,07 15,40 34,76
05/05 - 18:00 arome 14,06 14,06 14,40 5,24 9,84 83,07 0,14 (1h) 0,00 10,06 99,35 100,00 100,00 100,01 100,00 48,62 0,00 14,89 14,01 30,86
05/05 - 19:00 arome 13,74 13,74 14,05 4,88 9,71 84,63 0,37 (1h) 0,00 10,07 100,00 100,00 100,00 100,01 100,00 91,89 0,00 11,37 13,15 28,36
05/05 - 20:00 arome 13,35 13,33 13,74 4,78 9,60 86,44 0,98 (1h) 0,00 10,07 100,00 100,00 100,00 100,01 100,00 78,91 0,00 351,06 12,28 27,82
05/05 - 21:00 arome 13,17 13,17 13,41 4,33 9,37 86,21 1,60 (1h) 0,00 10,07 100,00 100,00 100,00 100,01 100,00 86,42 0,00 354,13 11,62 25,10
05/05 - 22:00 arome 12,86 12,86 13,17 4,59 9,11 88,29 4,07 (1h) 0,00 10,07 99,40 100,00 100,00 100,01 100,00 51,04 0,00 352,24 14,13 27,84
05/05 - 23:00 arome 12,74 12,74 12,86 4,73 8,90 88,11 2,17 (1h) 0,00 10,07 100,00 100,00 100,00 100,01 100,00 43,22 0,00 1,87 13,26 29,51
06/05 - 00:00 arome 12,12 12,13 12,74 5,25 8,41 82,72 1,39 (1h) 0,00 10,07 100,00 100,00 100,00 100,01 100,00 41,35 0,00 0,14 14,69 30,77
06/05 - 01:00 arome 11,70 11,69 12,10 4,80 7,82 80,27 0,26 (1h) 0,00 10,07 97,65 100,00 99,40 100,01 100,00 33,18 0,00 0,45 13,68 29,91
06/05 - 02:00 arome 11,34 11,34 11,68 4,50 7,31 80,32 0,09 (1h) 0,00 10,07 100,00 100,00 100,00 100,01 100,00 32,18 0,00 354,24 11,47 27,41
06/05 - 03:00 arome 10,96 10,96 11,33 4,38 6,97 82,14 0,39 (1h) 0,00 10,07 100,00 99,95 99,80 100,01 100,00 39,57 0,00 351,03 11,77 23,27
06/05 - 04:00 arome 10,72 10,72 10,97 3,97 6,76 84,22 0,01 (1h) 0,00 10,07 100,00 100,00 100,00 100,01 100,00 33,28 0,00 345,41 11,72 24,97
06/05 - 05:00 arome 10,55 10,55 10,73 3,86 6,62 85,46 0,02 (1h) 0,00 10,07 100,00 100,00 97,75 100,01 100,00 36,07 0,00 342,32 12,09 24,03
06/05 - 06:00 arome 10,64 10,43 10,64 3,53 6,51 85,48 0,00 (1h) 0,00 10,07 100,00 100,00 39,60 100,01 100,00 45,64 0,00 355,11 13,08 25,86
06/05 - 07:00 arome 10,58 10,58 10,65 3,10 6,33 84,76 1,05 (1h) 0,00 10,08 100,00 100,00 2,15 100,01 100,00 49,44 0,00 359,71 14,18 28,13
06/05 - 08:00 arome 10,78 10,59 10,78 2,98 6,21 82,68 0,21 (1h) 0,00 10,09 100,00 99,40 90,35 100,01 100,00 44,63 0,00 358,12 14,26 29,81
06/05 - 09:00 arome 11,25 10,77 11,26 3,48 6,38 78,88 0,01 (1h) 0,00 10,09 100,00 100,00 97,70 100,01 100,00 59,58 0,00 355,95 13,75 28,55
06/05 - 10:00 arome 13,00 11,28 13,01 3,65 7,56 69,02 0,00 (1h) 0,00 10,09 63,30 100,00 82,10 100,01 100,00 64,88 0,00 1,80 13,72 28,77
06/05 - 11:00 arome 14,32 13,05 14,32 3,42 8,57 58,97 0,00 (1h) 0,00 10,09 35,75 100,00 99,60 100,01 100,00 78,98 0,00 2,60 13,51 29,36
06/05 - 12:00 arome 15,62 14,34 15,62 1,56 9,68 49,56 0,00 (1h) 0,00 10,09 36,65 100,00 100,00 100,01 100,00 74,97 0,00 7,69 12,64 29,13
06/05 - 13:00 arome 16,21 15,62 16,21 1,81 10,34 46,88 0,00 (1h) 0,00 10,09 80,75 100,00 100,00 100,01 100,00 72,70 0,00 7,01 13,28 29,45
06/05 - 14:00 arome 16,87 16,20 16,87 2,29 10,97 43,23 0,00 (1h) 0,00 10,09 82,00 100,00 100,00 100,01 100,00 82,99 0,00 2,59 11,96 29,18
06/05 - 15:00 arome 16,54 16,52 17,10 2,44 11,07 46,50 0,00 (1h) 0,00 10,09 100,00 96,85 100,00 100,01 100,00 81,73 0,00 36,67 12,30 27,30
06/05 - 16:00 arome 16,25 16,11 16,68 2,29 10,89 48,38 0,00 (1h) 0,00 10,09 100,00 98,10 100,00 100,01 100,00 75,23 0,00 26,65 11,08 26,67
06/05 - 17:00 arome 16,19 16,13 16,30 2,42 10,87 50,93 0,00 (1h) 0,00 10,09 93,35 29,55 100,00 100,01 93,35 60,12 0,00 23,75 9,83 23,63
06/05 - 18:00 arome 15,48 15,48 16,18 2,42 10,42 56,42 0,00 (1h) 0,00 10,09 94,20 10,15 100,00 100,01 94,20 56,63 0,00 21,34 12,56 24,84